Starlink 5346

operational
NORAD ID: 56518 Int'l Des: 2023-065 Owner: SPXS Country: US Constellation: starlink
LEOCIRCULAR

Über Starlink 5346

Beschreibung wird geladen...

Live-Position

3D-Globus wird geladen...

Nächste Überflüge

Höhenverlauf

Altitude vs Time

uPlot chart will show altitude changes over time

Zweizeiliger Elementsatz

1 56518U 23065R 26037.30484617 .00001473 00000-0 12406-3 0 9993
2 56518 43.0037 20.8714 0001126 264.9504 95.1210 15.02538074151905
Epoch: 6. Feb. 2026 • Age: 21 hours

Aktueller Status

Höhe 562.8 km
Geschwindigkeit 7.59 km/s
Subsatellitenpunkt 42.42°N, 110.43°W
Startdatum 14. Mai 2023
Alter 2.7 years
Typ internet

Technische Details

Klassifizierung Payload
Masse 305.00 kg
Trockenmasse 290.00 kg
Gesamtmasse 305.00 kg
Länge 0.20 m
Durchmesser 2.80 m
Spannweite 9.00 m
Form Box + pan
Hersteller SPXS
Bus-Typ Starlink
Phasenstatus In Orbit
Besitzer/Staat SPXS/US

Große Konstellationen

Loading constellations...